Showing default

THURAYA 4, 62483

Orbit data source: Space-Track

THURAYA 4, 62483 is an Emirian payload satellite in GEO that was launched on Sat, 04 Jan 2025 UTC via an FALCON 9 launch vehicle from the Air Force Eastern Test Range (AFETR). Payload-class satellites include a variety of spacecraft equipped with specific instruments for various scientific and technological missions. These include communications satellites like Starlink; space stations such as the ISS; scientific satellites like the Hubble; Earth observation satellites from companies like Planet Labs, Umbra, and HawkEye 360; GPS; miniature CubeSats for education and research; and military/defense satellites.

Not visible in the next 10 days
Identifier
62483, 2025-001A
Orbit
GEO
Country
Flag of AEAE / UAE
Related business
None
Manufacturer
ADST/ADSUK
Mission
Operational Commercial Communications
Bus & Motor
EUROSTAR NEO, PPS-5000
Mass
5,000 kg wet, ~5,000 kg dry
Launch date (UTC)
2025-01-04 (11 months ago)
Launch vehicle
FALCON 9
Launch site
Air Force Eastern Test Range (AFETR)
Object type
Payload
Rocket body
Debris
Shape & HBR
Box + 2 Pan, 22.5 m
Radar Cross Section
58.239 m², Large (>1 m²)

Expand to show TLE details & history
Last TLE update: 16 hours ago

TLE from 16 hours ago
0 THURAYA 4
1 62483U 25001A   25341.21999977  .00000144  00000-0  00000-0 0  9998
2 62483   0.0165  39.5846 0000191 217.4704 302.6914  1.00272221  2259
Epoch: 2025-12-07T05:16Z
TLE epoch observation values (Epoch: 2025-12-07T05:16:47.980Z)
Latitude
-0.00453°
Longitude
44.29913°
Altitude
35,785.527 km
Speed
3.075 km/s
True Right ascension
13h 18m 56s
True Declination
0° 00' 16"
Sunlit
Object was in daylight at epoch
Visualization orbit readout
Latitude
Unknown
Longitude
Unknown
Altitude
Unknown
Speed
Unknown
Apparent Right ascension
Unknown
Apparent Declination
Unknown
Sunlit
N/A
Visualization observer readout
Local Sidereal Time
19:47:45
Azimuth
Unknown
Elevation
Unknown
Doppler factor
Unknown
Orbital elements
Apogee altitude
35,788.348 km
Perigee altitude
35,786.738 km
Semi-major axis
42,165.68 km
Eccentricity
0.00002
Inclination
0.0165°
RAAN
39.5846°
Arg. of periapsis
217.4704°
True anomaly
302.68956°
Mean anomaly
302.6914°
Eccentric anomaly
302.69048°
Mean motion
0.25067 °/min
Orbital period
1,436.14 mins
BSTAR
0
Loading maneuver chart data...
Computing Atmospheric mass density...
Loading historical data...
Loading historical data...
Loading historical data...
Loading historical data...
Loading historical data...
Loading historical data...
Loading historical data...
Other satellites on launch #1 in the year 2025 (2025-01-04 UTC)

Documentation

Showing up to 5 results
|